Weather Roundup
Issued by NWS

Home | Current Version | Previous Version | Graphics & Text | Print | Product List | Glossary Off
Versions: 1 2 3 4 5 6 7 8 9 10 11 12 13 14 15 16 17 18 19 20 21 22 23 24 25 26 27 28 29 30 31 32 33 34 35 36 37 38 39 40 41 42 43 44 45 46 47 48 49 50

623
NZUS93 KARX 291859
HRRWXR

CURRENT HOURLY OBSERVATIONS ACROSS
MUCH OF THE UPPER MISSISSIPPI VALLEY
NATIONAL WEATHER SERVICE LA CROSSE WI
200 PM CDT SAT APR 29 2017


...SOUTHEAST MINNESOTA...


CITY           SKY/WX    TMP DP  RH WIND       PRES   REMARKS
ROCHESTER      PTSUNNY   46  29  51 E17       30.24R
ROCHESTER/MAYO FAIR      48  26  42 E8G16     30.25R
WINONA         CLOUDY    48  30  49 E8        30.26R
AUSTIN         CLOUDY    46  28  49 E15G21    30.23R
ALBERT LEA     CLOUDY    46  25  42 NE17G23   30.23R
DODGE CENTER   CLOUDY    48  28  46 E16       30.24R
PRESTON        CLOUDY    45  27  50 NE15      30.23R
OWATONNA       CLOUDY    50  27  40 NE16G22   30.25R
FARIBAULT      CLOUDY    52  27  37 NE10G18   30.25R
$$

...ELSEWHERE IN MINNESOTA...


CITY           SKY/WX    TMP DP  RH WIND       PRES   REMARKS
MINNEAPOLIS    CLOUDY    53  23  31 NE16      30.27F
INTNL FALLS    SUNNY     52  17  25 E5        30.32S
DULUTH         SUNNY     46  20  35 SE13      30.33R
RED WING       CLOUDY    52  23  32 NE13G20   30.25S
REDWOOD FALLS  MOSUNNY   52  21  29 NE8G18    30.27R
MANKATO        PTSUNNY   50  26  39 E15       30.26R
WORTHINGTON    CLOUDY    48  21  34 NE21G26   30.26R
FAIRMONT       CLOUDY    48  27  44 E16G22    30.25R
$$

...SOUTHWEST WISCONSIN...


CITY           SKY/WX    TMP DP  RH WIND       PRES   REMARKS
LA CROSSE      CLOUDY    50  27  40 E8        30.25R
PRAIRIE DU CHI CLOUDY    46  30  53 NE8       30.22S
BOSCOBEL       CLOUDY    48  30  49 NE10      30.24S
LONE ROCK      NOT AVBL
PLATTEVILLE    CLOUDY    45  36  70 NE21      30.19F
FORT MC COY    CLOUDY    47  28  46 E14       30.26S
MAUSTON-NEW LI CLOUDY    47  30  53 E8        30.25R
VIROQUA        FAIR      45  30  55 NE16      30.22S
WIS DELLS      CLOUDY    44  29  57 E14G21    30.26R
$$

...ELSEWHERE IN WISCONSIN...


CITY           SKY/WX    TMP DP  RH WIND       PRES   REMARKS
MILWAUKEE      CLOUDY    41  32  70 N15G31    30.27S
MADISON        CLOUDY    45  33  63 E13G22    30.25R
GREEN BAY      CLOUDY    46  32  58 NE18      30.31R
EAU CLAIRE     NOT AVBL
BLACK RVR FLS  FAIR      49  24  37 E8        30.26R
MEDFORD        PTSUNNY   49  27  42 E8        30.27R
WAUSAU         MOSUNNY   50  26  39 NE10      30.26R
WIS RAPIDS     CLOUDY    49  27  42 E14       30.28R
MARSHFIELD     CLOUDY    49  27  42 E16       30.26R
RICE LAKE      MOSUNNY   52  24  34 NE10G20   30.29S
$$

...NORTHEAST IOWA...


CITY           SKY/WX    TMP DP  RH WIND       PRES   REMARKS
WATERLOO       LGT RAIN  44  33  65 NE17      30.19S
DUBUQUE        CLOUDY    44  33  65 NE20G30   30.13F
DECORAH        CLOUDY    45  28  53 E17       30.21R
MASON CITY     CLOUDY    47  28  47 NE13      30.25R
CHARLES CITY   CLOUDY    45  28  53 NE15G22   30.23R
OELWEIN        CLOUDY    45  34  65 NE14G20   30.20R
$$

...ELSEWHERE IN IOWA...


CITY           SKY/WX    TMP DP  RH WIND       PRES   REMARKS
DES MOINES     LGT RAIN  44  41  89 NE18      30.09F
IOWA CITY      RAIN      44  40  85 NE13      30.13R FOG
FORT DODGE     CLOUDY    45  34  65 NE16      30.22S
MARSHALLTOWN   LGT RAIN  43  38  82 NE20G25   30.14F
CEDAR RAPIDS   LGT RAIN  43  41  93 NE14      30.12R FOG
$$

...NORTHERN ILLINOIS...


CITY           SKY/WX    TMP DP  RH WIND       PRES   REMARKS
CHICAGO-OHARE  LGT RAIN  40  36  86 N21G31    30.16F FOG     WCI  30
CHICAGO-MIDWAY LGT RAIN  41  38  89 N23G37    30.13F
MOLINE         RAIN      43  39  86 NE20G28   30.07S
ROCKFORD       LGT RAIN  43  36  76 NE17G28   30.16F
PEORIA         LGT RAIN  45  44  97 NE17G26   30.02R FOG
$$

NOTE: "FAIR" INDICATES FEW OR NO CLOUDS BELOW 12,000 FEET WITH NO
SIGNIFICANT WEATHER AND/OR OBSTRUCTIONS TO VISIBILITY. WIND
SPEEDS ARE IN MILES-PER-HOUR.




USA.gov is the U.S. government's official web portal to all federal, state and local government web resources and services.